Regional Weather Roundup
Issued by NWS

Home | Current Version | Previous Version | Graphics & Text | Print | Product List | Glossary On
Versions: 1 2 3 4 5 6 7 8 9 10 11 12 13 14 15 16 17 18 19 20 21 22 23 24 25 26 27 28 29 30 31 32 33 34 35 36 37 38 39 40 41 42 43 44 45 46 47 48 49 50
000
ASUS43 KLOT 211158
RWRIL

ILLINOIS REGIONAL WEATHER ROUNDUP
NATIONAL WEATHER SERVICE CHICAGO/ROMEOVILLE IL
700 AM CDT TUE OCT 21 2014

NOTE: "FAIR" INDICATES FEW OR NO CLOUDS BELOW 12,000 FEET WITH NO
SIGNIFICANT WEATHER AND/OR OBSTRUCTIONS TO VISIBILITY.

* THESE STATIONS ARE NOT UNDER NWS QUALITY CONTROL. THEY ALSO MAY NOT
  REPORT WEATHER SUCH AS PRECIPITATION OR FOG.

ILZ001-002-007-009-015-016-024-211300-
NORTHWEST ILLINOIS

CITY           SKY/WX    TMP DP  RH WIND       PRES   REMARKS
MOLINE         CLEAR     37  35  92 CALM      30.14R
6HR MIN TEMP:  36; 6HR MAX TEMP:  43;

$$

ILZ003-004-008-010-011-017-018-211300-
NORTH CENTRAL ILLINOIS

CITY           SKY/WX    TMP DP  RH WIND       PRES   REMARKS
ROCKFORD       NOT AVBL
$$

ILZ005-006-012>014-019>023-211300-
NORTHEAST ILLINOIS

CITY           SKY/WX    TMP DP  RH WIND       PRES   REMARKS
CHICAGO-OHARE  PTCLDY    46  39  76 N12       30.09R
6HR MIN TEMP:  45; 6HR MAX TEMP:  51;

CHICAGO-MIDWAY NOT AVBL
AURORA         MOCLDY    42  37  82 N7        30.11R
6HR MIN TEMP:  42; 6HR MAX TEMP:  50;

WAUKEGAN       NOT AVBL
DUPAGE AIRPORT PTCLDY    45  38  76 N8        30.10R
6HR MIN TEMP:  45; 6HR MAX TEMP:  51;

WHEELING       MOCLDY    47  40  76 N9        30.11R
6HR MIN TEMP:  46; 6HR MAX TEMP:  52;

NORTHERLY ISL    N/A     50  39  66 NW13        N/A
$$

LMZ740>746-211300-
SOUTHERN LAKE MICHIGAN

STATION/POSITION SKY/WX   TEMP    WIND        PRES    VSBY  WAVE
                          AIR SEA DIR/SP/G                  HT/PER
                          (F)     (DEG/KT/KT) (MB)    (MI)  (FT/S)
SOUTHERN BUOY              49 54  340/ 21/ 25 1017.5R         6/ 7
WAUKEGAN HARBOR            46     340/  8/ 12   N/A
HARRISON CRIB              51     350/ 21/ 24   N/A
BURNHAM HARBOR             51     360/ 12/ 18   N/A
CALUMET HARBOR             51     340/ 11/ 20 1017.1R
MICHIGAN CITY              51     350/ 25/ 28   N/A
$$

ILZ025>027-034>036-040-047-049-050-058-095>099-211300-
WEST-CENTRAL ILLINOIS

CITY           SKY/WX    TMP DP  RH WIND       PRES   REMARKS
$$

ILZ028>032-037-038-041>044-048-051>054-059>061-211300-
CENTRAL ILLINOIS

CITY           SKY/WX    TMP DP  RH WIND       PRES   REMARKS
PEORIA         NOT AVBL
SPRINGFIELD    NOT AVBL
TAYLORVILLE    NOT AVBL
$$

ILZ033-039-045-046-055>057-062-063-211300-
EAST-CENTRAL ILLINOIS

CITY           SKY/WX    TMP DP  RH WIND       PRES   REMARKS
$$

ILZ079-100>102-211300-
SOUTHWEST ILLINOIS

CITY           SKY/WX    TMP DP  RH WIND       PRES   REMARKS
ALTON          CLEAR     45  43  93 CALM      30.08R
$$

ILZ064>066-069>071-074>076-080>082-084>086-088>090-092>094-211300-
SOUTH-CENTRAL ILLINOIS

CITY           SKY/WX    TMP DP  RH WIND       PRES   REMARKS
CARBONDALE     CLEAR     42  40  92 CALM      30.07R
6HR MIN TEMP:  41; 6HR MAX TEMP:  46;

MARION         CLEAR     43  41  93 CALM      30.07R
$$

ILZ067-068-072-073-078-083-087-091-211300-
SOUTHEAST ILLINOIS

CITY           SKY/WX    TMP DP  RH WIND       PRES   REMARKS
LAWRENCEVILLE  CLEAR     42  41  96 NW5       30.06R
$$

ABBREVIATIONS USED IN REMARKS
   TC - TEMPERATURE IN CELSIUS
  WCI - WIND CHILL INDEX
   HX - HEAT INDEX
  VSB - VISIBILITY
$$



USA.gov is the U.S. government's official web portal to all federal, state and local government web resources and services.